User: anonymous   Login
Location: Brno
(49.2000°N, 16.6330°E)
Time: 21:00:32
(UTC+01:00)
Language:

Cosmos 1459 Rocket - Orbit

View from above orbital plane
View from above orbital plane
View from above satellite
View from above satellite

Ground track
Ground track

The orbit data is extracted from the following two-line orbital elements,

1 14059U 83042B   15028.88620697  .00000098  00000-0  81092-4 0  4657
2 14059 082.9747 347.8430 0042605 189.1334 198.9815 13.78491976595851
Epoch (UTC): 28 January 2015 21:16:08
Eccentricity: 0.0042605
inclination: 82.9747°
perigee height: 938 km
apogee height: 1000 km
right ascension of ascending node: 347.8430°
argument of perigee: 189.1334°
revolutions per day: 13.78491976
mean anomaly at epoch: 198.9815°
orbit number at epoch: 59585

The dashed part of the orbit path shows where the satellite is in the earth's shadow,  

DLR